Location: Hains Lake
(37.8540°N, 99.8578°W)
Time: 12:30:15
(UTC+00:00)

Transit 2A - Pass Details

Date: 19 April 2021
Orbit: 602 x 957 km, 66.7° (Epoch: 13 May)

Event Time Altitude Azimuth Distance (km) Brightness Sun altitude
Rises 15:03:27 0° 252° (WSW) 3,065 8.7 35.4°
Reaches altitude 10° 15:06:50 10° 276° (W) 2,084 7.9 36.0°
Maximum altitude 15:09:28 15° 311° (NW) 1,740 7.6 36.5°
Drops below altitude 10° 15:12:02 10° 346° (NNW) 2,006 8.0 37.0°
Sets 15:15:12 0° 11° (N) 2,881 8.9 37.6°
